Weather History for Nogales, AZ

Change the Weather History Date:

Tuesday, August 6, 2013

  Actual Average (KTUS) Record (KTUS)
Temperature  
Mean Temperature 71 °F 86 °F  
Max Temperature 80 °F 97 °F 109 °F (1995)
Min Temperature 62 °F 74 °F 63 °F (1928)
Degree Days  
Heating Degree Days 0 0  
Month to date heating degree days 0  
Since 1 June heating degree days 0  
Since 1 July heating degree days 0  
Cooling Degree Days 6 21  
Month to date cooling degree days 126  
Year to date cooling degree days 1905  
Since 1 June cooling degree days 1403  
Growing Degree Days 21 (Base 50)    
Moisture  
Dew Point 63 °F    
Average Humidity 81    
Maximum Humidity 93    
Minimum Humidity 50    
Precipitation  
Precipitation 0.53 in 0.08 in 1.88 in (1955)
Month to date precipitation 0.51  
Year to date precipitation 6.03  
Sea Level Pressure  
Sea Level Pressure 30.02 in    
Wind  
Wind Speed 3 mph (WNW)    
Max Wind Speed 16 mph    
Max Gust Speed 23 mph    
Visibility 8 miles    
Events Fog , Rain , Thunderstorm    
T = Trace of Precipitation, MM = Missing Value Source: NWS Daily Summary

Daily Weather History Graph

Daily Weather History Graph

Search for Another Location

Airport:

Trip Planner

Search our weather history database for the weather conditions in past years. The results will help you decide how hot, cold, wet, or windy it might be!

Date:

Astronomy

Aug. 06, 2013 Rise Set
Actual Time 5:43 AM MST 7:14 PM MST
Civil Twilight 5:17 AM MST 7:40 PM MST
Nautical Twilight 4:45 AM MST 8:11 PM MST
Astronomical Twilight 4:13 AM MST 8:44 PM MST
Moon 5:33 AM MST (8/6) 6:57 PM MST (8/6)
Length of Visible Light 14h 23m
Length of Day
13h 31m
Waning Crescent, 0% of the Moon is Illuminated
Aug 6
Waning Crescent
Aug 6
New
Aug 14
First Quarter
Aug 20
Full
Aug 28
Last Quarter

Hourly Weather History & Observations

Time (MST) Temp. Heat Index Dew Point Humidity Pressure Visibility Wind Dir Wind Speed Gust Speed Precip Events Conditions
12:54 AM 66.0 °F - 63.0 °F 90% 29.94 in 10.0 mi Calm Calm - N/A   Mostly Cloudy
1:54 AM 64.0 °F - 62.1 °F 93% 29.93 in 10.0 mi Calm Calm - N/A   Clear
2:54 AM 64.0 °F - 61.0 °F 90% 29.91 in 10.0 mi Calm Calm - N/A   Mostly Cloudy
3:54 AM 63.0 °F - 61.0 °F 93% 29.92 in 10.0 mi Calm Calm - N/A   Clear
4:54 AM 63.0 °F - 60.1 °F 90% 29.92 in 10.0 mi East 3.5 mph - N/A   Clear
5:54 AM 62.1 °F - 59.0 °F 90% 29.95 in 10.0 mi East 3.5 mph - N/A   Clear
6:54 AM 64.9 °F - 61.0 °F 87% 29.97 in 10.0 mi Calm Calm - N/A   Clear
7:54 AM 70.0 °F - 63.0 °F 78% 29.98 in 10.0 mi Calm Calm - N/A   Partly Cloudy
8:54 AM 73.0 °F - 63.0 °F 71% 29.97 in 10.0 mi SW 3.5 mph - N/A   Clear
9:54 AM 79.0 °F - 60.1 °F 52% 29.96 in 10.0 mi Variable 4.6 mph - N/A   Clear
10:54 AM 80.1 °F 80.9 °F 60.1 °F 50% 29.95 in 10.0 mi Variable 4.6 mph - N/A   Scattered Clouds
11:27 AM 78.1 °F - 61.0 °F 56% 30.13 in 10.0 mi West 15.0 mph - N/A Thunderstorm Partly Cloudy
11:51 AM 75.2 °F - 60.8 °F 61% 30.13 in 10.0 mi West 8.1 mph - N/A   Mostly Cloudy
11:54 AM 75.9 °F - 61.0 °F 60% 29.96 in 10.0 mi West 6.9 mph - N/A   Mostly Cloudy
12:08 PM 73.9 °F - 63.0 °F 68% 30.15 in 2.0 mi West 8.1 mph - 0.07 in Rain , Thunderstorm Thunderstorms and Rain
12:11 PM 71.1 °F - 64.9 °F 81% 30.15 in 0.5 mi West 16.1 mph 23.0 mph 0.26 in Rain , Thunderstorm Heavy Thunderstorms and Rain
12:19 PM 66.0 °F - 63.0 °F 90% 30.15 in 0.2 mi Calm Calm - 0.43 in Fog , Rain , Thunderstorm Heavy Thunderstorms and Rain
12:24 PM 66.9 °F - 63.0 °F 87% 30.14 in 1.0 mi NNE 3.5 mph - 0.43 in Rain , Thunderstorm Light Thunderstorms and Rain
12:28 PM 66.9 °F - 64.0 °F 90% 30.14 in 4.0 mi North 5.8 mph - 0.44 in Rain , Thunderstorm Light Thunderstorms and Rain
12:51 PM 69.8 °F - 64.4 °F 83% 30.15 in 10.0 mi NE 4.6 mph - 0.44 in Thunderstorm Overcast
12:54 PM 70.0 °F - 64.9 °F 84% 29.99 in 10.0 mi North 4.6 mph - 0.44 in Thunderstorm Overcast
1:09 PM 70.0 °F - 64.9 °F 84% 30.15 in 10.0 mi WNW 10.4 mph - N/A Thunderstorm Overcast
1:36 PM 69.1 °F - 64.0 °F 84% 30.15 in 10.0 mi NW 8.1 mph - N/A   Overcast
1:49 PM 68.0 °F - 64.4 °F 88% 30.15 in 10.0 mi WNW 5.8 mph - 0.00 in Rain , Thunderstorm Light Rain
1:54 PM 66.9 °F - 64.9 °F 93% 30.00 in 2.5 mi NW 5.8 mph - 0.03 in Rain , Thunderstorm Rain
1:58 PM 66.9 °F - 64.9 °F 93% 30.15 in 1.8 mi North 6.9 mph - 0.01 in Rain Heavy Rain
2:05 PM 66.9 °F - 64.0 °F 90% 30.14 in 3.0 mi NNE 5.8 mph - 0.03 in Rain Rain
2:40 PM 66.9 °F - 64.9 °F 93% 30.14 in 6.0 mi SSW 6.9 mph - 0.04 in Rain Light Rain
2:54 PM 66.9 °F - 64.9 °F 93% 30.00 in 5.0 mi SSW 9.2 mph - 0.05 in Rain Light Rain
3:54 PM 70.0 °F - 63.0 °F 78% 29.96 in 10.0 mi Calm Calm - 0.01 in   Scattered Clouds
4:54 PM 73.0 °F - 64.0 °F 73% 29.94 in 10.0 mi SSE 3.5 mph - N/A   Clear
5:54 PM 73.9 °F - 63.0 °F 68% 29.93 in 10.0 mi South 3.5 mph - N/A   Clear
6:54 PM 73.0 °F - 63.0 °F 71% 29.93 in 10.0 mi Calm Calm - N/A   Partly Cloudy
7:54 PM 71.1 °F - 64.9 °F 81% 29.93 in 10.0 mi Calm Calm - N/A   Overcast
8:54 PM 70.0 °F - 63.0 °F 78% 29.95 in 10.0 mi Calm Calm - N/A   Mostly Cloudy
9:54 PM 68.0 °F - 63.0 °F 84% 29.95 in 10.0 mi SSE 5.8 mph - N/A   Clear
10:54 PM 66.0 °F - 63.0 °F 90% 29.96 in 10.0 mi SSE 4.6 mph - N/A   Clear
11:54 PM 64.0 °F - 61.0 °F 90% 29.97 in 10.0 mi East 3.5 mph - N/A   Clear